Powrót do katalogu

USA 7

AktywnyMilitariaGEO
NORAD 15453·PAYLOAD·🇺🇸 United States

Wystrzelony Dec 22, 1984 z Cape Canaveral Space Force Station

Loading…

TLE

ŚwieżeSource: Space-Track

Epoka: Sep 14, 2026, 14:21 UTC

1 15453U 84129A   26257.59800125 -.00000030  00000-0  00000-0 0  9998
2 15453  11.3507 320.2949 0003437 279.2770 237.1400  0.98855147 26931

Śledź USA 7 w czasie rzeczywistym z AllMySat

Download on the App Store